This is the latest recevied weather packets stored in our database for station/object WA7CUG. If no packets are shown the sender has not sent any weather packets the latest 10 day(s).
| Time | Temp. | Humidity | Pressure | Rain* | Wind** | Luminosity | Snow |
|---|---|---|---|---|---|---|---|
| 1777959736 | 17.78° C | 48% | 1008.8 hPa | 0 mm | - | 0 W/m² | - |
| 1777959434 | 17.78° C | 49% | 1009 hPa | 0 mm | - | 0 W/m² | - |
| 1777959130 | 18.89° C | 48% | 1009 hPa | 0 mm | - | 0 W/m² | - |
| 1777958828 | 18.89° C | 47% | 1009 hPa | 0 mm | - | 0 W/m² | - |
| 1777958524 | 17.78° C | 46% | 1008.9 hPa | 0 mm | - | 0 W/m² | - |
| 1777958222 | 18.33° C | 49% | 1008.8 hPa | 0 mm | - | 0 W/m² | - |
| 1777957920 | 19.44° C | 49% | 1008.7 hPa | 0 mm | - | 0 W/m² | - |
| 1777957617 | 20° C | 46% | 1008.6 hPa | 0 mm | - | 0 W/m² | - |
| 1777957316 | 20.56° C | 47% | 1008.7 hPa | 0 mm | - | 0 W/m² | - |
| 1777957010 | 20° C | 43% | 1008.7 hPa | 0 mm | - | 0 W/m² | - |
| 1777956708 | 20° C | 44% | 1008.7 hPa | 0 mm | - | 0 W/m² | - |
| 1777956405 | 20.56° C | 42% | 1008.7 hPa | 0 mm | - | 0 W/m² | - |
| 1777956102 | 20° C | 40% | 1008.5 hPa | 0 mm | - | 0 W/m² | - |
| 1777955798 | 20° C | 41% | 1008.4 hPa | 0 mm | - | 0 W/m² | - |
| 1777955495 | 20° C | 49% | 1008.4 hPa | 0 mm | - | 0 W/m² | - |
| 1777955190 | 21.11° C | 41% | 1008.5 hPa | 0 mm | - | 0 W/m² | - |
| 1777954889 | 21.67° C | 41% | 1008.4 hPa | 0 mm | - | 0 W/m² | - |
| 1777954585 | 21.11° C | 42% | 1008.3 hPa | 0 mm | - | 0 W/m² | - |
| 1777954282 | 21.11° C | 44% | 1007.9 hPa | 0 mm | - | 0 W/m² | - |
| 1777953979 | 21.67° C | 41% | 1007.8 hPa | 0 mm | - | 0 W/m² | - |
| 1777953676 | 21.67° C | 38% | 1007.9 hPa | 0 mm | - | 0 W/m² | - |
| 1777953373 | 22.78° C | 42% | 1007.8 hPa | 0 mm | - | 0 W/m² | - |
| 1777953069 | 23.33° C | 35% | 1007.7 hPa | 0 mm | - | 0 W/m² | - |
| 1777952766 | 23.33° C | 35% | 1007.7 hPa | 0 mm | - | 0 W/m² | - |
| 1777952463 | 23.89° C | 35% | 1007.4 hPa | 0 mm | - | 0 W/m² | - |
* Rain latest hour (hover to see other rain measurements)
** Current wind speed in m/s (hover to see current wind gust speed)